| time (UTC) | temp F | wind direction | speed MPH | gust MPH | rain 1hr in | rain 24hr in | rain mn in | humidity % | barometer mb |
| 20260504014524 | 48 | 312 | 0.0 | 2.0 | 0.00 | 0.00 | 0.00 | 54 | 1011.3 |
| 20260504014022 | 48 | 312 | 0.0 | 2.0 | 0.00 | 0.00 | 0.00 | 54 | 1011.3 |
| 20260504013522 | 48 | 312 | 0.0 | 2.0 | 0.00 | 0.00 | 0.00 | 53 | 1011.3 |
| 20260504013023 | 48 | 312 | 0.0 | 1.0 | 0.00 | 0.00 | 0.00 | 53 | 1011.2 |
| 20260504012523 | 48 | 312 | 0.0 | 1.0 | 0.00 | 0.00 | 0.00 | 52 | 1011.2 |
| 20260504012022 | 48 | 312 | 0.0 | 1.0 | 0.00 | 0.00 | 0.00 | 53 | 1011.2 |
| 20260504011523 | 49 | 312 | 0.0 | 2.0 | 0.00 | 0.00 | 0.00 | 53 | 1011.2 |
| 20260504011021 | 49 | 312 | 0.0 | 3.0 | 0.00 | 0.00 | 0.00 | 52 | 1011.1 |
| 20260504010523 | 49 | 360 | 1.0 | 3.0 | 0.00 | 0.00 | 0.00 | 52 | 1011.1 |
| 20260504010021 | 49 | 310 | 1.0 | 2.0 | 0.00 | 0.00 | 0.00 | 53 | 1011.0 |
| 20260504005521 | 49 | 312 | 1.0 | 2.0 | 0.00 | 0.00 | 0.00 | 52 | 1010.9 |
| 20260504005021 | 50 | 311 | 0.0 | 2.0 | 0.00 | 0.00 | 0.00 | 51 | 1011.0 |
| 20260504004523 | 51 | 312 | 0.0 | 3.0 | 0.00 | 0.00 | 0.00 | 49 | 1010.9 |
| 20260504004021 | 51 | 311 | 1.0 | 3.0 | 0.00 | 0.00 | 0.00 | 49 | 1010.9 |
| 20260504003520 | 51 | 311 | 0.0 | 3.0 | 0.00 | 0.00 | 0.00 | 48 | 1010.8 |
| 20260504003022 | 52 | 311 | 0.0 | 3.0 | 0.00 | 0.00 | 0.00 | 46 | 1010.7 |
| 20260504002519 | 52 | 311 | 1.0 | 5.0 | 0.00 | 0.00 | 0.00 | 45 | 1010.7 |
| 20260504002019 | 53 | 311 | 2.0 | 5.0 | 0.00 | 0.00 | 0.00 | 45 | 1010.6 |
| 20260504001519 | 53 | 317 | 1.0 | 2.0 | 0.00 | 0.00 | 0.00 | 44 | 1010.5 |
| 20260504001019 | 54 | 317 | 1.0 | 3.0 | 0.00 | 0.00 | 0.00 | 43 | 1010.4 |
| 20260504000518 | 54 | 360 | 0.0 | 3.0 | 0.00 | 0.00 | 0.00 | 43 | 1010.3 |
| 20260504000018 | 54 | 317 | 1.0 | 6.0 | 0.00 | 0.00 | 0.00 | 42 | 1010.4 |
| 20260503235518 | 55 | 317 | 2.0 | 6.0 | 0.00 | 0.00 | 0.00 | 41 | 1010.3 |
| 20260503235018 | 55 | 319 | 2.0 | 6.0 | 0.00 | 0.00 | 0.00 | 41 | 1010.2 |
| 20260503234522 | 55 | 331 | 2.0 | 6.0 | 0.00 | 0.00 | 0.00 | 41 | 1010.3 |
| 20260503234018 | 55 | 304 | 2.0 | 8.0 | 0.00 | 0.00 | 0.00 | 40 | 1010.1 |
| 20260503233517 | 55 | 313 | 2.0 | 8.0 | 0.00 | 0.00 | 0.00 | 40 | 1010.1 |
| 20260503233017 | 55 | 314 | 3.0 | 5.0 | 0.00 | 0.00 | 0.00 | 39 | 1010.0 |
| 20260503232517 | 56 | 327 | 2.0 | 17.0 | 0.00 | 0.00 | 0.00 | 40 | 1010.0 |
| 20260503232017 | 56 | 329 | 4.0 | 17.0 | 0.00 | 0.00 | 0.00 | 38 | 1010.0 |
| 20260503231519 | 56 | 312 | 6.0 | 13.0 | 0.00 | 0.00 | 0.00 | 37 | 1010.0 |
| 20260503231017 | 56 | 309 | 1.0 | 6.0 | 0.00 | 0.00 | 0.00 | 38 | 1010.1 |
| 20260503230517 | 56 | 305 | 2.0 | 13.0 | 0.00 | 0.00 | 0.00 | 37 | 1010.0 |
| 20260503230016 | 56 | 309 | 3.0 | 11.0 | 0.00 | 0.00 | 0.00 | 36 | 1010.0 |
| 20260503225516 | 56 | 328 | 3.0 | 8.0 | 0.00 | 0.00 | 0.00 | 35 | 1009.9 |
| 20260503225016 | 57 | 287 | 3.0 | 8.0 | 0.00 | 0.00 | 0.00 | 34 | 1009.8 |
| 20260503224516 | 57 | 279 | 2.0 | 14.0 | 0.00 | 0.00 | 0.00 | 33 | 1009.7 |
| 20260503224017 | 57 | 323 | 4.0 | 14.0 | 0.00 | 0.00 | 0.00 | 34 | 1009.5 |
| 20260503223517 | 57 | 345 | 4.0 | 15.0 | 0.00 | 0.00 | 0.00 | 32 | 1009.5 |
| 20260503223022 | 57 | 272 | 8.0 | 15.0 | 0.00 | 0.00 | 0.00 | 32 | 1009.6 |
| 20260503222515 | 57 | 246 | 5.0 | 17.0 | 0.00 | 0.00 | 0.00 | 32 | 1009.6 |
| 20260503222016 | 57 | 315 | 7.0 | 17.0 | 0.00 | 0.00 | 0.00 | 31 | 1009.5 |
| 20260503221515 | 58 | 294 | 5.0 | 12.0 | 0.00 | 0.00 | 0.00 | 31 | 1009.4 |
| 20260503221015 | 58 | 315 | 5.0 | 11.0 | 0.00 | 0.00 | 0.00 | 30 | 1009.3 |
| 20260503220515 | 58 | 5 | 5.0 | 18.0 | 0.00 | 0.00 | 0.00 | 30 | 1009.3 |
| 20260503220017 | 58 | 323 | 8.0 | 18.0 | 0.00 | 0.00 | 0.00 | 28 | 1009.2 |
| 20260503215515 | 59 | 235 | 4.0 | 11.0 | 0.00 | 0.00 | 0.00 | 30 | 1009.4 |
| 20260503215013 | 58 | 307 | 4.0 | 10.0 | 0.00 | 0.00 | 0.00 | 31 | 1009.3 |
| 20260503214514 | 59 | 302 | 4.0 | 14.0 | 0.00 | 0.00 | 0.00 | 29 | 1009.3 |
| 20260503214014 | 59 | 294 | 6.0 | 14.0 | 0.00 | 0.00 | 0.00 | 28 | 1009.3 |
| 20260503213513 | 59 | 9 | 4.0 | 11.0 | 0.00 | 0.00 | 0.00 | 28 | 1009.2 |
| 20260503213012 | 59 | 360 | 6.0 | 13.0 | 0.00 | 0.00 | 0.00 | 28 | 1009.2 |
| 20260503212512 | 59 | 5 | 3.0 | 10.0 | 0.00 | 0.00 | 0.00 | 31 | 1009.2 |
| 20260503212011 | 59 | 340 | 5.0 | 13.0 | 0.00 | 0.00 | 0.00 | 29 | 1009.3 |
| 20260503211517 | 59 | 313 | 7.0 | 14.0 | 0.00 | 0.00 | 0.00 | 29 | 1009.4 |
| 20260503211010 | 59 | 9 | 4.0 | 12.0 | 0.00 | 0.00 | 0.00 | 30 | 1009.3 |
| 20260503210508 | 59 | 333 | 6.0 | 11.0 | 0.00 | 0.00 | 0.00 | 31 | 1009.3 |
| 20260503210016 | 59 | 320 | 5.0 | 14.0 | 0.00 | 0.00 | 0.00 | 31 | 1009.3 |
| 20260503205512 | 58 | 9 | 4.0 | 20.0 | 0.00 | 0.00 | 0.00 | 33 | 1009.3 |
| 20260503205007 | 58 | 336 | 7.0 | 15.0 | 0.00 | 0.00 | 0.00 | 30 | 1009.3 |
| 20260503204506 | 58 | 331 | 8.0 | 16.0 | 0.00 | 0.00 | 0.00 | 31 | 1009.3 |
| 20260503204006 | 58 | 319 | 8.0 | 16.0 | 0.00 | 0.00 | 0.00 | 30 | 1009.3 |
| 20260503203504 | 58 | 308 | 7.0 | 14.0 | 0.00 | 0.00 | 0.00 | 31 | 1009.4 |
| 20260503203011 | 58 | 5 | 5.0 | 12.0 | 0.00 | 0.00 | 0.00 | 32 | 1009.5 |
| 20260503202503 | 58 | 17 | 6.0 | 16.0 | 0.00 | 0.00 | 0.00 | 33 | 1009.5 |
| 20260503202004 | 57 | 344 | 6.0 | 15.0 | 0.00 | 0.00 | 0.00 | 32 | 1009.5 |
| 20260503201503 | 57 | 347 | 9.0 | 15.0 | 0.00 | 0.00 | 0.00 | 31 | 1009.4 |
| 20260503201002 | 58 | 318 | 4.0 | 16.0 | 0.00 | 0.00 | 0.00 | 35 | 1009.5 |
| 20260503200501 | 58 | 331 | 7.0 | 16.0 | 0.00 | 0.00 | 0.00 | 33 | 1009.5 |
| 20260503200000 | 58 | 335 | 4.0 | 16.0 | 0.00 | 0.00 | 0.00 | 34 | 1009.6 |
| 20260503195500 | 58 | 355 | 4.0 | 20.0 | 0.00 | 0.00 | 0.00 | 33 | 1009.7 |
| 20260503195100 | 57 | 342 | 7.0 | 20.0 | 0.00 | 0.00 | 0.00 | 32 | 1009.7 |
| 20260503194600 | 59 | 313 | 6.0 | 13.0 | 0.00 | 0.00 | 0.00 | 32 | 1009.9 |
| 20260503194100 | 58 | 213 | 3.0 | 11.0 | 0.00 | 0.00 | 0.00 | 35 | 1009.8 |
| 20260503193557 | 57 | 254 | 5.0 | 14.0 | 0.00 | 0.00 | 0.00 | 36 | 1010.0 |
| 20260503193057 | 57 | 288 | 8.0 | 19.0 | 0.00 | 0.00 | 0.00 | 32 | 1010.2 |
| 20260503192556 | 57 | 327 | 8.0 | 19.0 | 0.00 | 0.00 | 0.00 | 33 | 1010.1 |
| 20260503192055 | 57 | 304 | 8.0 | 16.0 | 0.00 | 0.00 | 0.00 | 34 | 1010.2 |
| 20260503191604 | 57 | 304 | 9.0 | 16.0 | 0.00 | 0.00 | 0.00 | 35 | 1010.3 |
| 20260503191054 | 57 | 5 | 7.0 | 14.0 | 0.00 | 0.00 | 0.00 | 35 | 1010.3 |
| 20260503190553 | 57 | 318 | 8.0 | 16.0 | 0.00 | 0.00 | 0.00 | 36 | 1010.2 |
| 20260503190052 | 57 | 253 | 6.0 | 16.0 | 0.00 | 0.00 | 0.00 | 37 | 1010.3 |
| 20260503185551 | 56 | 347 | 6.0 | 13.0 | 0.00 | 0.00 | 0.00 | 36 | 1010.5 |
| 20260503185051 | 55 | 263 | 7.0 | 15.0 | 0.00 | 0.00 | 0.00 | 37 | 1010.5 |
| 20260503184607 | 55 | 10 | 7.0 | 15.0 | 0.00 | 0.00 | 0.00 | 37 | 1010.7 |
| 20260503184050 | 56 | 22 | 3.0 | 13.0 | 0.00 | 0.00 | 0.00 | 37 | 1010.7 |
| 20260503183549 | 56 | 355 | 4.0 | 14.0 | 0.00 | 0.00 | 0.00 | 37 | 1010.6 |
| 20260503183049 | 55 | 32 | 7.0 | 14.0 | 0.00 | 0.00 | 0.00 | 38 | 1010.5 |
| 20260503182547 | 54 | 344 | 7.0 | 14.0 | 0.00 | 0.00 | 0.00 | 38 | 1010.8 |
| 20260503182047 | 53 | 30 | 6.0 | 14.0 | 0.00 | 0.00 | 0.00 | 41 | 1010.8 |
| 20260503181550 | 53 | 5 | 6.0 | 24.0 | 0.00 | 0.00 | 0.00 | 39 | 1010.9 |
| 20260503181047 | 54 | 355 | 8.0 | 24.0 | 0.00 | 0.00 | 0.00 | 39 | 1011.0 |
| 20260503180547 | 55 | 324 | 5.0 | 12.0 | 0.00 | 0.00 | 0.00 | 41 | 1010.8 |
| 20260503175645 | 54 | 321 | 9.0 | 17.0 | 0.00 | 0.00 | 0.00 | 39 | 1011.1 |
| 20260503175044 | 54 | 278 | 5.0 | 16.0 | 0.00 | 0.00 | 0.00 | 43 | 1011.0 |
| 20260503174600 | 52 | 5 | 9.0 | 16.0 | 0.00 | 0.00 | 0.00 | 41 | 1011.1 |
| 20260503174044 | 52 | 348 | 9.0 | 23.0 | 0.00 | 0.00 | 0.00 | 40 | 1011.2 |
| 20260503173544 | 51 | 342 | 7.0 | 23.0 | 0.00 | 0.00 | 0.00 | 41 | 1011.1 |
| 20260503173043 | 51 | 294 | 9.0 | 19.0 | 0.00 | 0.00 | 0.00 | 43 | 1011.1 |
| 20260503172543 | 51 | 339 | 8.0 | 19.0 | 0.00 | 0.00 | 0.00 | 43 | 1011.2 |
| 20260503172042 | 51 | 316 | 9.0 | 17.0 | 0.00 | 0.00 | 0.00 | 40 | 1011.2 |
| 20260503171542 | 53 | 306 | 6.0 | 17.0 | 0.00 | 0.00 | 0.00 | 42 | 1011.2 |
| 20260503171042 | 52 | 332 | 9.0 | 17.0 | 0.00 | 0.00 | 0.00 | 40 | 1011.1 |
| 20260503170545 | 52 | 313 | 10.0 | 20.0 | 0.00 | 0.00 | 0.00 | 41 | 1011.1 |
| 20260503150535 | 49 | 331 | 3.0 | 13.0 | 0.00 | 0.00 | 0.00 | 43 | 1011.2 |
| 20260503131018 | 46 | 360 | 8.0 | 15.0 | 0.00 | 0.00 | 0.00 | 54 | 1011.8 |
| 20260503130518 | 46 | 360 | 6.0 | 13.0 | 0.00 | 0.00 | 0.00 | 55 | 1011.9 |
| 20260503110600 | 40 | 360 | 2.0 | 4.0 | 0.00 | 0.00 | 0.00 | 73 | 1011.3 |
| 20260503100107 | 34 | 14 | 1.0 | 3.0 | 0.00 | 0.00 | 0.00 | 83 | 1010.7 |
| 20260503081556 | 35 | 15 | 2.0 | 3.0 | 0.00 | 0.00 | 0.00 | 80 | 1010.7 |
| 20260503081044 | 35 | 15 | 1.0 | 3.0 | 0.00 | 0.00 | 0.00 | 79 | 1010.8 |
| 20260503080546 | 35 | 15 | 0.0 | 2.0 | 0.00 | 0.00 | 0.00 | 78 | 1010.9 |
| 20260503072537 | 36 | 360 | 0.0 | 3.0 | 0.00 | 0.00 | 0.00 | 76 | 1011.1 |
| 20260503072037 | 37 | 360 | 1.0 | 3.0 | 0.00 | 0.00 | 0.00 | 74 | 1011.0 |
| 20260503071557 | 37 | 360 | 0.0 | 2.0 | 0.00 | 0.00 | 0.00 | 74 | 1010.9 |
| 20260503071036 | 37 | 360 | 0.0 | 2.0 | 0.00 | 0.00 | 0.00 | 74 | 1011.1 |
| 20260503070535 | 37 | 360 | 0.0 | 2.0 | 0.00 | 0.00 | 0.00 | 74 | 1011.0 |
| 20260503055022 | 40 | 360 | 2.0 | 5.0 | 0.00 | 0.00 | 0.00 | 70 | 1011.8 |
| 20260503054532 | 40 | 360 | 0.0 | 3.0 | 0.00 | 0.00 | 0.00 | 69 | 1011.8 |
| 20260503054022 | 41 | 360 | 1.0 | 4.0 | 0.00 | 0.00 | 0.00 | 68 | 1011.9 |
| 20260503053521 | 40 | 360 | 1.0 | 3.0 | 0.00 | 0.00 | 0.00 | 68 | 1011.9 |
| 20260503053020 | 40 | 360 | 1.0 | 3.0 | 0.00 | 0.00 | 0.00 | 70 | 1011.9 |
| 20260503052519 | 40 | 360 | 1.0 | 3.0 | 0.00 | 0.00 | 0.00 | 70 | 1012.0 |
| 20260503052018 | 40 | 360 | 1.0 | 3.0 | 0.00 | 0.00 | 0.00 | 72 | 1012.1 |
| 20260503051520 | 40 | 360 | 0.0 | 3.0 | 0.00 | 0.00 | 0.00 | 73 | 1012.2 |
| 20260503051019 | 40 | 360 | 0.0 | 3.0 | 0.00 | 0.00 | 0.00 | 73 | 1012.2 |
| 20260503050516 | 40 | 360 | 0.0 | 2.0 | 0.00 | 0.00 | 0.00 | 72 | 1012.3 |
| 20260503050016 | 40 | 360 | 0.0 | 2.0 | 0.00 | 0.00 | 0.00 | 73 | 1012.2 |
| 20260503045515 | 40 | 360 | 0.0 | 3.0 | 0.00 | 0.00 | 0.00 | 73 | 1012.3 |
| 20260503045016 | 40 | 360 | 0.0 | 3.0 | 0.00 | 0.00 | 0.00 | 71 | 1012.3 |
| 20260503044513 | 40 | 360 | 0.0 | 2.0 | 0.00 | 0.00 | 0.00 | 72 | 1012.3 |
| 20260503044012 | 41 | 360 | 0.0 | 2.0 | 0.00 | 0.00 | 0.00 | 70 | 1012.2 |
| 20260503043513 | 40 | 360 | 0.0 | 2.0 | 0.00 | 0.00 | 0.00 | 70 | 1012.3 |
| 20260503043013 | 41 | 360 | 0.0 | 2.0 | 0.00 | 0.00 | 0.00 | 69 | 1012.4 |
| 20260503042510 | 41 | 360 | 0.0 | 0.0 | 0.00 | 0.00 | 0.00 | 69 | 1012.3 |
| 20260503042011 | 41 | 360 | 0.0 | 0.0 | 0.00 | 0.00 | 0.00 | 69 | 1012.3 |
| 20260503041509 | 41 | 360 | 0.0 | 0.0 | 0.00 | 0.00 | 0.00 | 69 | 1012.4 |
| 20260503041009 | 41 | 360 | 0.0 | 0.0 | 0.00 | 0.00 | 0.00 | 68 | 1012.3 |
| 20260503040508 | 41 | 360 | 0.0 | 1.0 | 0.00 | 0.00 | 0.00 | 67 | 1012.3 |
| 20260503040012 | 41 | 360 | 0.0 | 1.0 | 0.00 | 0.00 | 0.00 | 67 | 1012.2 |
| 20260503035505 | 42 | 360 | 0.0 | 4.0 | 0.00 | 0.00 | 0.00 | 66 | 1012.3 |
| 20260503035005 | 42 | 360 | 0.0 | 4.0 | 0.00 | 0.00 | 0.00 | 66 | 1012.2 |
| 20260503034505 | 42 | 360 | 0.0 | 1.0 | 0.00 | 0.00 | 0.00 | 66 | 1012.2 |
| 20260503034005 | 42 | 360 | 0.0 | 1.0 | 0.00 | 0.00 | 0.00 | 66 | 1012.2 |
| 20260503033504 | 42 | 360 | 0.0 | 2.0 | 0.00 | 0.00 | 0.00 | 66 | 1012.2 |
| 20260503033003 | 43 | 360 | 0.0 | 3.0 | 0.00 | 0.00 | 0.00 | 65 | 1012.2 |
| 20260503032501 | 43 | 360 | 0.0 | 3.0 | 0.00 | 0.00 | 0.00 | 65 | 1012.3 |
| 20260503032001 | 43 | 360 | 0.0 | 2.0 | 0.00 | 0.00 | 0.00 | 63 | 1012.3 |
| 20260503031501 | 43 | 360 | 0.0 | 4.0 | 0.00 | 0.00 | 0.00 | 64 | 1012.3 |
| 20260503031101 | 44 | 360 | 1.0 | 4.0 | 0.00 | 0.00 | 0.00 | 63 | 1012.3 |
| 20260503030600 | 44 | 360 | 1.0 | 4.0 | 0.00 | 0.00 | 0.00 | 63 | 1012.2 |
| 20260503030059 | 44 | 360 | 1.0 | 3.0 | 0.00 | 0.00 | 0.00 | 61 | 1012.3 |
| 20260503025559 | 44 | 360 | 1.0 | 4.0 | 0.00 | 0.00 | 0.00 | 59 | 1012.4 |
| 20260503025102 | 43 | 360 | 1.0 | 4.0 | 0.00 | 0.00 | 0.00 | 62 | 1012.4 |
| 20260503024612 | 43 | 360 | 0.0 | 1.0 | 0.00 | 0.00 | 0.00 | 61 | 1012.4 |
| 20260503024056 | 44 | 360 | 0.0 | 2.0 | 0.00 | 0.00 | 0.00 | 61 | 1012.4 |
| 20260503023555 | 44 | 360 | 0.0 | 2.0 | 0.00 | 0.00 | 0.00 | 61 | 1012.4 |
| 20260503023055 | 44 | 360 | 0.0 | 1.0 | 0.00 | 0.00 | 0.00 | 60 | 1012.5 |
| 20260503022553 | 44 | 360 | 0.0 | 2.0 | 0.00 | 0.00 | 0.00 | 59 | 1012.5 |
| 20260503022057 | 45 | 360 | 0.0 | 2.0 | 0.00 | 0.00 | 0.00 | 60 | 1012.4 |
| 20260503021553 | 45 | 360 | 0.0 | 2.0 | 0.00 | 0.00 | 0.00 | 58 | 1012.5 |
| 20260503021051 | 46 | 360 | 0.0 | 3.0 | 0.00 | 0.00 | 0.00 | 57 | 1012.4 |
| 20260503020551 | 46 | 360 | 0.0 | 3.0 | 0.00 | 0.00 | 0.00 | 55 | 1012.5 |
| 20260503020051 | 47 | 360 | 0.0 | 3.0 | 0.00 | 0.00 | 0.00 | 54 | 1012.5 |
| 20260503015550 | 47 | 360 | 0.0 | 5.0 | 0.00 | 0.00 | 0.00 | 54 | 1012.5 |
| 20260503015054 | 47 | 360 | 1.0 | 5.0 | 0.00 | 0.00 | 0.00 | 52 | 1012.5 |